www.pogodaiklimat.ru

Погода и климат >> Архив погоды >> Россия >> Приморский край >> Партизанск


ПОГОДА в Партизанске

  • Прогноз погоды в Партизанске
  • Монитор погоды в Партизанске
  • Климат города

АРХИВ ПОГОДЫ в Партизанске

Время (UTC), дата Ветер
(напр.,м/с)
 
Видим.   Явления Облачность Т
(С)
Тd
(С)
f
(%)
Тe
(С)
Тes
(С)
Комфортность P
(гПа)
Po
(гПа)
Тmin
(С)
Tmax
(С)
R
(мм)
R24
(мм)
S
(см)
00 14.01 СЗ 2 50 км 9/3 600 м
[Sc Ci fib]
-17.1 -26.5 44 -22 -22 1032.0 1003.9
03 14.01 Ю 1 50 км 10/10 600 м
[Cb cap]
-13.1 -21.7 48 -15 -15 1029.7 1002.1
06 14.01 С 1 4000 м слабый ливневой дождь 10/10 300 м
[Cb cap]
-8.3 -10.8 82 -11 -11 1025.4 998.4
09 14.01 СВ 1 2000 м слабый ливневой снег 10/10 300 м
[Cb cap]
-7.6 -9.3 88 -10 -10 1023.5 996.6 -7.6 3
12 14.01 СЗ 1 4000 м слабый ливневой снег 10/10 600 м
[Cb cap]
-6.3 -7.8 89 -9 -9 1021.5 994.9
15 14.01 С 1 4000 м слабый снег {ливн. осадки} 10/10 300 м
[Frnb Ns]
-4.7 -5.9 91 -7 -7 1018.1 991.7
18 14.01 СЗ 2 20 км {ливн. осадки, снег} 10/10 600 м
[Sc]
-4.8 -5.9 92 -9 -9 1015.9 989.6
21 14.01 штиль 0 20 км 10/10 600 м
[Sc]
-4.1 -5.1 93 -5 -5 1015.1 988.8 -7.6 4 8
00 15.01 ЮЗ 3 1000 м дымка 10/10 300 м
[St]
-3.0 -3.9 93 -8 -8 1015.0 988.9
03 15.01 СЗ 7-12
{14}
50 км 4/4 600 м
[Cu Sc]
-1.6 -12.0 45 -8 -8 1015.8 989.7
06 15.01 С 9-14
{16}
50 км {метель} 3/3 1000 м
[Cu hum]
-3.2 -18.0 31 -11 -11 1017.2 990.9
09 15.01 С 6
{15}
50 км ясно -5.8 -19.3 34 -13 -13 1020.1 993.5 -0.7
12 15.01 С 6
{13}
50 км ясно -7.6 -19.7 37 -15 -15 1022.5 995.7
15 15.01 С 3 50 км ясно -9.8 -19.3 46 -15 -15 1023.6 996.5
18 15.01 С 4 50 км 3/0
[Ci fib]
-11.5 -19.3 52 -19 -19 1023.7 996.4
21 15.01 СЗ 2 50 км 10/10 600 м
[Sc]
-10.1 -19.2 47 -14 -14 1022.0 994.9 -11.5 6
00 16.01 штиль 0 50 км 10/4 600 м
[Sc Ac As]
-12.0 -18.7 57 -12 -12 1022.0 994.7 -12.3
03 16.01 ЮВ 1 4000 м слабый снег 10/8 600 м
[Sc As op]
-8.6 -14.2 64 -11 -11 1020.2 993.3
06 16.01 штиль 0 4000 м снег 10/0
[As op]
-8.3 -10.8 82 -9 -8 1018.5 991.7
09 16.01 С 3 20 км {снег} 8/8 600 м
[Sc]
-8.9 -10.7 87 -15 -15 1018.6 991.8 -8.1 1
12 16.01 С 2 20 км {снег} 6/3 600 м
[Sc Ci fib]
-9.2 -11.6 83 -14 -14 1020.0 993.1
15 16.01 С 3 20 км 10/4 600 м
[Sc Ci fib]
-10.4 -12.6 84 -16 -16 1020.6 993.6
18 16.01 С 1 20 км 3/3 600 м
[Sc]
-10.5 -13.7 77 -13 -13 1021.1 994.0
21 16.01 С 2 20 км 3/3 600 м
[Sc]
-13.6 -16.0 82 -18 -18 1022.1 994.7 -14.0 9
00 17.01 С 1 50 км 1/0
[Ci fib]
-13.7 -16.6 79 -16 -15 1022.5 995.0 -14.8
03 17.01 ЮВ 1 50 км ясно -6.0 -13.4 56 -8 -3 1021.3 994.6
06 17.01 Ю 3 50 км 3/1 1000 м
[Cu hum Ac As]
-3.0 -9.6 60 -8 -7 1018.1 991.8
09 17.01 ЮЗ 4 50 км 9/8 1000 м
[Sc Ac trans]
-3.8 -9.5 65 -10 -10 1018.0 991.7 -2.5
12 17.01 ЮЗ 3 50 км 10/8 1000 м
[Sc Ac As]
-4.3 -9.2 69 -9 -9 1017.8 991.4
15 17.01 СЗ 1 50 км 10/10 1000 м
[Sc]
-5.6 -9.5 74 -8 -8 1017.7 991.2
18 17.01 штиль 0 4000 м слабый снег 10/0 600 м
[As op]
-6.3 -8.6 84 -7 -7 1017.4 990.9
21 17.01 С 1 4000 м слабый снег 10/0 600 м
[As op]
-6.1 -7.6 89 -9 -9 1016.5 990.0 -6.5 1 9
00 18.01 С 3 50 км {снег} 3/1 1000 м
[Cu hum Ci fib]
-5.0 -10.3 66 -10 -9 1017.5 991.0 -6.8
03 18.01 С 6-10
{10}
4000 м слабый ливневой снег 10/8 600 м
[Cb cap Ci fib]
-3.6 -11.5 54 -11 -10 1017.7 991.4
06 18.01 С 7-12
{12}
50 км позёмок {ливн. осадки, метель} 3/1 1000 м
[Cu hum Ci fib]
-4.3 -15.9 40 -12 -11 1017.9 991.5
09 18.01 С 5
{12}
50 км {метель} ясно -7.0 -18.3 40 -14 -14 1021.2 994.4 -2.5 0.2
12 18.01 С 4 50 км {метель} ясно -9.2 -17.7 50 -16 -16 1023.2 996.2
15 18.01 С 1 50 км ясно -12.0 -18.3 59 -14 -14 1025.1 997.8
18 18.01 СЗ 2 50 км ясно -13.1 -19.0 61 -18 -18 1025.7 998.2
21 18.01 С 3 50 км ясно -16.1 -21.1 65 -23 -23 1025.4 997.6 -16.2 6
00 19.01 С 1 50 км ясно -16.6 -20.9 69 -19 -18 1027.0 999.1 -18.4
03 19.01 Ю 1 50 км ясно -6.5 -18.8 37 -8 -3 1022.9 996.1
06 19.01 Ю 1 50 км 8/3 600 м
[Cu med, cong Cs]
-4.8 -18.2 34 -6 -5 1020.2 993.7
09 19.01 Ю 2 50 км {ливн. осадки} 10/9 600 м
[Cb calv Ci ing]
-6.1 -10.8 69 -10 -10 1020.1 993.5 -4.5 0.0
12 19.01 штиль 0 4000 м слабый ливневой снег 8/8 600 м
[Cb cap]
-7.0 -9.4 83 -8 -8 1019.4 992.7
15 19.01 С 1 4000 м слабый ливневой снег 10/10 600 м
[Cb cap]
-7.0 -8.6 88 -9 -9 1018.1 991.4
18 19.01 С 2 50 км в посл. час ливневой снег 9/9 600 м
[Cb cap]
-7.5 -9.0 89 -12 -12 1017.7 991.0
21 19.01 С 2 50 км 1/1 600 м
[Sc]
-9.2 -10.8 88 -14 -14 1017.0 990.2 -9.3 2 10
00 20.01 З 1 50 км 1/1 600 м
[Cu hum]
-6.5 -10.8 71 -9 -7 1017.7 991.1 -9.7
03 20.01 СЗ 2
{12}
50 км 3/3 1000 м
[Cu hum]
-3.9 -21.4 24 -7 -4 1017.1 990.8
06 20.01 СЗ 4
{14}
50 км {метель} 1/1 1000 м
[Cu hum]
-4.9 -21.5 26 -10 -9 1016.7 990.3
09 20.01 С 3
{10}
50 км ясно -8.7 -25.9 23 -14 -14 1019.1 992.3 -3.2
12 20.01 С 3 50 км ясно -11.7 -26.2 29 -18 -18 1021.5 994.2
15 20.01 С 2
{10}
50 км ясно -12.2 -28.0 25 -17 -17 1022.3 994.9
18 20.01 С 3
{11}
50 км ясно -16.1 -27.7 36 -23 -23 1024.1 996.3
21 20.01 СЗ 7-14
{14}
50 км ясно -16.9 -29.2 34 -28 -28 1024.1 996.2 -17.0 9

 

Местоположение метеостанции Партизанск (Приморский край, Россия): широта 43.15 долгота 133.00 высота над уровнем моря 208 м.

В архиве по умолчанию представлена погода в Партизанске за последнюю неделю. Архивные данные за месяц целиком и за предыдущие месяцы, начиная с января 2011 года, Вы можете получить, выбрав интересующий диапазон дат из раскрывающегося списка и нажав кнопку "Ввод!".

Внимание! Время в таблицах - всемирное. Для получения местного времени необходимо прибавить поправку, которая в Партизанске равна 10 ч.

Смотрите также архив погоды в соседних городах и на ближайших метеорологических станциях:

Погода в Находке (Приморский край, Россия) (42 км)
Погода в Многоудобном (Приморский край, Россия) (56 км)
Погода в Лазо (Приморский край, Россия) (71 км)
Погода в Преображении (Приморский край, Россия) (78 км)
Погода в Владивостоке (Приморский край, Россия) (89 км)
Погода на Мысе Назимова (Приморский край, Россия) (90 км)
Погода в Анучино (Приморский край, Россия) (91 км)
Погода в Лучегорске (Приморский край, Россия) (117 км)
Погода в Тимирязевском (Приморский край, Россия) (120 км)
Погода в Чугуевке (Приморский край, Россия) (129 км)

Пояснения к столбцам:

Ветер - указаны скорость ветра в м/с - средняя за 10 мин, порывы в срок и между сроками (в фигурных скобках) и направление, откуда дует ветер: С - северный, СВ - северо-восточный, В - восточный, ЮВ - юго-восточный, Ю - южный, ЮЗ - юго-западный, З - западный, СЗ - северо-западный.
Видимость - горизонтальная дальность видимости в метрах или километрах. При видимости от 1 до 10 км при отсутствии осадков обычно наблюдается дымка, при ухудшении видимости до 1 км и менее - туман. В сухую погоду видимость может ухудшаться дымом, пылью или мглою.
Явления - указаны атмосферные явления, наблюдавшиеся в срок или в последний час перед сроком; фигурными скобками обозначены явления, наблюдавшиеся между сроками (за 1-3 часа до срока); квадратными скобками обозначены град или гололедные отложения с указанием их диаметра в мм.
Облачность - указаны через наклонную черту общая и нижняя облачность в баллах и высота нижней границы облаков в метрах; квадратными скобками обозначены формы облаков: Ci - перистые, Cs - перисто-слоистые, Cc - перисто-кучевые, Ac - высококучевые, As - высокослоистые, Sc - слоисто-кучевые, Ns - слоисто-дождевые, Cu - кучевые, Cb - кучево-дождевые. Подробнее классификацию облаков см. в Атласе облаков (PDF).
T - Температура воздуха - температура, измеренная на высоте 2 м над землей.
Td - Температура точки росы - температура, при понижении до которой содержащийся в воздухе водяной пар достигнет насыщения.
f - Относительная влажность воздуха - влажноcть воздуха, измеренная на высоте 2 м над землей.
Te - Эффективная температура - температура, которую ощущает одетый по сезону человек в тени. Характеристика душности погоды. При расчете учитывается влияние влажности воздуха и скорости ветра на теплоощущения человека.
Tes - Эффективная температура на солнце - температура, которую ощущает человек, с поправкой на солнечный нагрев. Характеристика знойности погоды. Зависит от высоты солнца над горизонтом, облачности и скорости ветра. Ночью, в пасмурную погоду, а также при ветре 12 м/с и более поправка равна нулю.
P - Атмосферное давление - приведенное к уровню моря атмосферное давление.
Po - Атмосферное давление - измеренное на уровне метеостанции атмосферное давление.
Tmin - Минимальная температура - минимум температуры воздуха на высоте 2 м над землей.
Tmax - Максимальная температура - максимум температуры воздуха на высоте 2 м над землей.
R - Количество осадков - Количество выпавших осадков за период времени, мм. При наведении курсора мыши на число - период времени, за который выпало указанное количество осадков.
R24 - Количество осадков - Количество выпавших осадков за 24 часа, мм.
S - Снежный покров - Высота снежного покрова, см. При наведении курсора мыши на число - состояние снежного покрова и степень покрытия местности в баллах.